Time,TemperatureF,DewpointF,PressureIn,WindDirection,WindDirectionDegrees,WindSpeedMPH,WindSpeedGustMPH,Humidity,HourlyPrecipIn,Conditions,Clouds,dailyrainin,SoftwareType,DateUTC
2013-03-08 00:03:00,19.8,17.0,30.33,SE,145,0.0,7.0,90,0.00,,,0.00,weatherlink.com 1.10,2013-03-08 06:03:00,
2013-03-08 00:19:00,19.7,17.0,30.33,SSE,159,1.0,7.0,90,0.00,,,0.00,weatherlink.com 1.10,2013-03-08 06:19:00,
2013-03-08 00:33:00,19.8,17.0,30.34,SSE,168,1.0,7.0,90,0.00,,,0.00,weatherlink.com 1.10,2013-03-08 06:33:00,
2013-03-08 00:48:00,19.7,17.0,30.34,South,188,3.0,7.0,90,0.00,,,0.00,weatherlink.com 1.10,2013-03-08 06:48:00,
2013-03-08 01:03:00,19.4,17.0,30.34,South,178,4.0,10.0,90,0.00,,,0.00,weatherlink.com 1.10,2013-03-08 07:03:00,
2013-03-08 01:18:00,19.3,17.0,30.34,SSE,168,2.0,7.0,91,0.00,,,0.00,weatherlink.com 1.10,2013-03-08 07:18:00,
2013-03-08 01:33:00,19.4,17.0,30.34,South,171,3.0,8.0,91,0.00,,,0.00,weatherlink.com 1.10,2013-03-08 07:33:00,
2013-03-08 01:48:00,19.4,17.0,30.34,South,185,3.0,7.0,91,0.00,,,0.00,weatherlink.com 1.10,2013-03-08 07:48:00,
2013-03-08 02:03:00,19.5,17.0,30.34,South,175,3.0,7.0,91,0.00,,,0.00,weatherlink.com 1.10,2013-03-08 08:03:00,
2013-03-08 02:18:00,19.4,17.0,30.34,South,169,2.0,7.0,90,0.00,,,0.00,weatherlink.com 1.10,2013-03-08 08:18:00,
2013-03-08 02:33:00,19.3,17.0,30.34,South,186,2.0,6.0,91,0.00,,,0.00,weatherlink.com 1.10,2013-03-08 08:33:00,
2013-03-08 02:48:00,19.4,17.0,30.33,South,170,2.0,5.0,91,0.00,,,0.00,weatherlink.com 1.10,2013-03-08 08:48:00,
2013-03-08 03:03:00,19.3,17.0,30.33,SE,140,1.0,3.0,91,0.00,,,0.00,weatherlink.com 1.10,2013-03-08 09:03:00,
2013-03-08 03:18:00,19.1,17.0,30.33,South,169,0.0,3.0,91,0.00,,,0.00,weatherlink.com 1.10,2013-03-08 09:18:00,
2013-03-08 03:33:00,19.3,17.0,30.32,SSE,147,0.0,3.0,91,0.00,,,0.00,weatherlink.com 1.10,2013-03-08 09:33:00,
2013-03-08 03:48:00,19.7,18.0,30.32,South,171,2.0,6.0,91,0.00,,,0.00,weatherlink.com 1.10,2013-03-08 09:48:00,
2013-03-08 04:03:00,19.7,18.0,30.32,SSE,156,3.0,4.0,91,0.00,,,0.00,weatherlink.com 1.10,2013-03-08 10:03:00,
2013-03-08 04:18:00,19.8,18.0,30.32,SSE,159,4.0,5.0,91,0.00,,,0.00,weatherlink.com 1.10,2013-03-08 10:18:00,
2013-03-08 04:33:00,20.1,18.0,30.32,SSE,167,2.0,6.0,91,0.00,,,0.00,weatherlink.com 1.10,2013-03-08 10:33:00,
2013-03-08 04:48:00,20.3,18.0,30.32,SSE,148,4.0,4.0,91,0.00,,,0.00,weatherlink.com 1.10,2013-03-08 10:48:00,
2013-03-08 05:03:00,20.2,18.0,30.32,South,180,4.0,6.0,92,0.00,,,0.00,weatherlink.com 1.10,2013-03-08 11:03:00,
2013-03-08 05:18:00,20.1,18.0,30.32,SSE,164,3.0,5.0,92,0.00,,,0.00,weatherlink.com 1.10,2013-03-08 11:18:00,
2013-03-08 05:33:00,20.0,18.0,30.32,ESE,121,2.0,5.0,92,0.00,,,0.00,weatherlink.com 1.10,2013-03-08 11:33:00,
2013-03-08 05:48:00,20.2,18.0,30.32,SE,126,2.0,6.0,92,0.00,,,0.00,weatherlink.com 1.10,2013-03-08 11:48:00,
2013-03-08 06:03:00,20.1,18.0,30.32,SSE,151,3.0,5.0,92,0.00,,,0.00,weatherlink.com 1.10,2013-03-08 12:03:00,
2013-03-08 06:18:00,20.1,18.0,30.32,SE,140,3.0,6.0,92,0.00,,,0.00,weatherlink.com 1.10,2013-03-08 12:18:00,
2013-03-08 06:33:00,19.9,18.0,30.32,SE,126,4.0,4.0,92,0.00,,,0.00,weatherlink.com 1.10,2013-03-08 12:33:00,
2013-03-08 06:48:00,20.0,18.0,30.31,SSE,161,2.0,7.0,93,0.00,,,0.00,weatherlink.com 1.10,2013-03-08 12:48:00,
2013-03-08 07:03:00,20.1,18.0,30.32,SSE,148,2.0,5.0,93,0.00,,,0.00,weatherlink.com 1.10,2013-03-08 13:03:00,
2013-03-08 07:18:00,20.3,19.0,30.31,SE,135,1.0,6.0,93,0.00,,,0.00,weatherlink.com 1.10,2013-03-08 13:18:00,
2013-03-08 07:33:00,20.6,19.0,30.31,ESE,106,1.0,4.0,93,0.00,,,0.00,weatherlink.com 1.10,2013-03-08 13:33:00,
2013-03-08 07:48:00,21.4,20.0,30.31,SE,135,2.0,5.0,92,0.00,,,0.00,weatherlink.com 1.10,2013-03-08 13:48:00,
2013-03-08 08:03:00,21.8,20.0,30.31,ESE,113,1.0,5.0,91,0.00,,,0.00,weatherlink.com 1.10,2013-03-08 14:03:00,
2013-03-08 08:18:00,22.6,20.0,30.32,ESE,104,0.0,5.0,91,0.00,,,0.00,weatherlink.com 1.10,2013-03-08 14:18:00,
2013-03-08 08:34:00,23.3,21.0,30.33,SE,129,4.0,7.0,90,0.00,,,0.00,weatherlink.com 1.10,2013-03-08 14:34:00,
2013-03-08 08:49:00,24.2,22.0,30.33,SSE,148,4.0,5.0,89,0.00,,,0.00,weatherlink.com 1.10,2013-03-08 14:49:00,
2013-03-08 09:04:00,24.9,22.0,30.32,SE,145,3.0,9.0,88,0.00,,,0.00,weatherlink.com 1.10,2013-03-08 15:04:00,
2013-03-08 09:19:00,25.8,23.0,30.32,SE,128,6.0,7.0,87,0.00,,,0.00,weatherlink.com 1.10,2013-03-08 15:19:00,
2013-03-08 09:34:00,26.7,23.0,30.32,East,80,2.0,6.0,86,0.00,,,0.00,weatherlink.com 1.10,2013-03-08 15:34:00,
2013-03-08 09:49:00,27.6,24.0,30.31,SSE,161,2.0,9.0,86,0.00,,,0.00,weatherlink.com 1.10,2013-03-08 15:49:00,
2013-03-08 10:04:00,28.7,25.0,30.31,SSE,157,2.0,8.0,84,0.00,,,0.00,weatherlink.com 1.10,2013-03-08 16:04:00,
2013-03-08 10:19:00,29.6,25.0,30.31,SSE,159,3.0,11.0,84,0.00,,,0.00,weatherlink.com 1.10,2013-03-08 16:19:00,
2013-03-08 10:34:00,30.7,26.0,30.31,SSE,155,1.0,7.0,83,0.00,,,0.00,weatherlink.com 1.10,2013-03-08 16:34:00,
2013-03-08 10:49:00,31.2,27.0,30.30,SE,138,3.0,8.0,83,0.00,,,0.00,weatherlink.com 1.10,2013-03-08 16:49:00,
2013-03-08 11:04:00,32.6,28.0,30.30,SW,216,2.0,7.0,82,0.00,,,0.00,weatherlink.com 1.10,2013-03-08 17:04:00,
2013-03-08 11:19:00,34.0,29.0,30.29,East,95,3.0,7.0,81,0.00,,,0.00,weatherlink.com 1.10,2013-03-08 17:19:00,
2013-03-08 11:49:00,35.1,30.0,30.28,SE,132,4.0,7.0,80,0.01,,,0.01,weatherlink.com 1.10,2013-03-08 17:49:00,
2013-03-08 12:04:00,35.3,30.0,30.27,ESE,115,5.0,9.0,80,0.01,,,0.01,weatherlink.com 1.10,2013-03-08 18:04:00,
2013-03-08 12:19:00,34.8,30.0,30.27,East,79,2.0,9.0,82,0.01,,,0.01,weatherlink.com 1.10,2013-03-08 18:19:00,
2013-03-08 12:34:00,35.5,30.0,30.27,SE,146,2.0,10.0,81,0.01,,,0.01,weatherlink.com 1.10,2013-03-08 18:34:00,
2013-03-08 12:49:00,35.9,30.0,30.27,SE,144,1.0,7.0,80,0.00,,,0.01,weatherlink.com 1.10,2013-03-08 18:49:00,
2013-03-08 13:04:00,35.9,31.0,30.26,SE,134,4.0,8.0,81,0.00,,,0.01,weatherlink.com 1.10,2013-03-08 19:04:00,
2013-03-08 13:19:00,36.2,31.0,30.25,ESE,122,3.0,8.0,81,0.00,,,0.01,weatherlink.com 1.10,2013-03-08 19:19:00,
2013-03-08 13:34:00,36.3,31.0,30.24,SE,130,4.0,9.0,81,0.00,,,0.01,weatherlink.com 1.10,2013-03-08 19:34:00,
2013-03-08 13:49:00,35.8,31.0,30.22,ESE,117,7.0,9.0,83,0.00,,,0.01,weatherlink.com 1.10,2013-03-08 19:49:00,
2013-03-08 14:04:00,35.4,31.0,30.22,SSE,147,5.0,11.0,84,0.00,,,0.01,weatherlink.com 1.10,2013-03-08 20:04:00,
2013-03-08 14:19:00,35.7,31.0,30.23,SSE,159,3.0,9.0,84,0.00,,,0.01,weatherlink.com 1.10,2013-03-08 20:19:00,
2013-03-08 14:35:00,35.7,31.0,30.22,East,79,6.0,12.0,84,0.00,,,0.01,weatherlink.com 1.10,2013-03-08 20:35:00,
2013-03-08 14:50:00,36.1,32.0,30.22,South,182,4.0,11.0,84,0.00,,,0.01,weatherlink.com 1.10,2013-03-08 20:50:00,
2013-03-08 15:05:00,36.2,32.0,30.22,SSE,153,5.0,9.0,84,0.00,,,0.01,weatherlink.com 1.10,2013-03-08 21:05:00,
2013-03-08 15:20:00,36.2,32.0,30.21,SSE,157,6.0,11.0,84,0.00,,,0.01,weatherlink.com 1.10,2013-03-08 21:20:00,
2013-03-08 15:35:00,35.5,31.0,30.21,SSE,165,4.0,13.0,85,0.00,,,0.01,weatherlink.com 1.10,2013-03-08 21:35:00,
2013-03-08 15:50:00,35.6,32.0,30.21,SE,142,4.0,13.0,85,0.00,,,0.01,weatherlink.com 1.10,2013-03-08 21:50:00,
2013-03-08 16:05:00,35.8,32.0,30.21,SE,126,7.0,11.0,85,0.00,,,0.01,weatherlink.com 1.10,2013-03-08 22:05:00,
2013-03-08 16:20:00,35.8,32.0,30.20,SE,146,5.0,15.0,85,0.00,,,0.01,weatherlink.com 1.10,2013-03-08 22:20:00,
2013-03-08 16:35:00,35.6,32.0,30.18,SE,129,7.0,12.0,86,0.00,,,0.01,weatherlink.com 1.10,2013-03-08 22:35:00,
2013-03-08 16:50:00,35.3,32.0,30.18,SSE,150,6.0,11.0,87,0.00,,,0.01,weatherlink.com 1.10,2013-03-08 22:50:00,
2013-03-08 17:05:00,35.3,32.0,30.17,SSE,155,7.0,12.0,87,0.00,,,0.01,weatherlink.com 1.10,2013-03-08 23:05:00,
2013-03-08 17:20:00,35.5,32.0,30.16,South,175,6.0,13.0,86,0.00,,,0.01,weatherlink.com 1.10,2013-03-08 23:20:00,
2013-03-08 17:35:00,35.4,32.0,30.15,SE,140,4.0,12.0,86,0.00,,,0.01,weatherlink.com 1.10,2013-03-08 23:35:00,
2013-03-08 17:50:00,35.5,31.0,30.16,South,182,9.0,12.0,85,0.00,,,0.01,weatherlink.com 1.10,2013-03-08 23:50:00,
2013-03-08 18:05:00,35.5,31.0,30.15,ENE,78,3.0,10.0,85,0.00,,,0.01,weatherlink.com 1.10,2013-03-09 00:05:00,
2013-03-08 18:20:00,35.6,32.0,30.15,ESE,123,3.0,10.0,85,0.00,,,0.01,weatherlink.com 1.10,2013-03-09 00:20:00,
2013-03-08 18:35:00,35.6,32.0,30.15,ESE,120,4.0,11.0,85,0.00,,,0.01,weatherlink.com 1.10,2013-03-09 00:35:00,
2013-03-08 18:50:00,35.8,31.0,30.14,ESE,114,8.0,14.0,84,0.00,,,0.01,weatherlink.com 1.10,2013-03-09 00:50:00,
2013-03-08 19:05:00,35.8,31.0,30.14,SSE,155,4.0,14.0,84,0.00,,,0.01,weatherlink.com 1.10,2013-03-09 01:05:00,
2013-03-08 19:20:00,35.3,31.0,30.14,SE,126,6.0,14.0,85,0.00,,,0.01,weatherlink.com 1.10,2013-03-09 01:20:00,
2013-03-08 19:35:00,34.8,31.0,30.14,SSE,164,7.0,13.0,87,0.00,,,0.01,weatherlink.com 1.10,2013-03-09 01:35:00,
2013-03-08 19:50:00,34.5,31.0,30.14,SE,144,6.0,11.0,88,0.00,,,0.01,weatherlink.com 1.10,2013-03-09 01:50:00,
2013-03-08 20:05:00,34.5,31.0,30.13,ESE,122,8.0,12.0,88,0.00,,,0.01,weatherlink.com 1.10,2013-03-09 02:05:00,
2013-03-08 20:20:00,35.0,32.0,30.13,SW,225,8.0,14.0,87,0.00,,,0.01,weatherlink.com 1.10,2013-03-09 02:20:00,
2013-03-08 20:35:00,35.3,32.0,30.12,SSE,161,5.0,14.0,86,0.00,,,0.01,weatherlink.com 1.10,2013-03-09 02:35:00,
2013-03-08 20:50:00,35.1,31.0,30.12,SSW,198,5.0,17.0,86,0.00,,,0.01,weatherlink.com 1.10,2013-03-09 02:50:00,
2013-03-08 21:05:00,35.0,32.0,30.12,ESE,116,7.0,19.0,87,0.00,,,0.01,weatherlink.com 1.10,2013-03-09 03:05:00,
2013-03-08 21:20:00,35.0,32.0,30.12,South,171,6.0,13.0,87,0.00,,,0.01,weatherlink.com 1.10,2013-03-09 03:20:00,
2013-03-08 21:35:00,35.2,32.0,30.11,SSE,156,7.0,14.0,87,0.00,,,0.01,weatherlink.com 1.10,2013-03-09 03:35:00,
2013-03-08 21:50:00,35.2,32.0,30.11,SSE,157,6.0,16.0,87,0.00,,,0.01,weatherlink.com 1.10,2013-03-09 03:50:00,
2013-03-08 22:05:00,35.1,32.0,30.11,South,175,8.0,19.0,87,0.00,,,0.01,weatherlink.com 1.10,2013-03-09 04:05:00,
2013-03-08 22:20:00,35.1,32.0,30.11,South,180,11.0,14.0,88,0.00,,,0.01,weatherlink.com 1.10,2013-03-09 04:20:00,
2013-03-08 22:35:00,34.7,32.0,30.10,South,169,9.0,16.0,90,0.01,,,0.02,weatherlink.com 1.10,2013-03-09 04:35:00,
2013-03-08 22:50:00,34.6,32.0,30.10,South,189,8.0,15.0,91,0.03,,,0.04,weatherlink.com 1.10,2013-03-09 04:50:00,
2013-03-08 23:05:00,34.8,32.0,30.10,SE,137,5.0,18.0,90,0.03,,,0.04,weatherlink.com 1.10,2013-03-09 05:05:00,
2013-03-08 23:20:00,34.7,32.0,30.08,SE,130,5.0,13.0,91,0.02,,,0.04,weatherlink.com 1.10,2013-03-09 05:20:00,
2013-03-08 23:35:00,34.7,33.0,30.07,SSE,163,5.0,11.0,92,0.03,,,0.05,weatherlink.com 1.10,2013-03-09 05:35:00,
2013-03-08 23:50:00,34.5,33.0,30.07,SSE,167,5.0,13.0,93,0.05,,,0.09,weatherlink.com 1.10,2013-03-09 05:50:00,